Weather History for McGuire AFB, NJ

Change the Weather History Date:

Thursday, May 15, 2014

  Actual Average Record
Temperature  
Mean Temperature 68 °F -  
Max Temperature 79 °F 69 °F 87 °F (2004)
Min Temperature 57 °F 48 °F 41 °F (1999)
Cooling Degree Days 2    
Growing Degree Days 18 (Base 50)    
Moisture  
Dew Point 66 °F    
Average Humidity 94    
Maximum Humidity 100    
Minimum Humidity 69    
Precipitation  
Precipitation 0.05 in - - ()
Sea Level Pressure  
Sea Level Pressure 30.12 in    
Wind  
Wind Speed 7 mph (SSE)    
Max Wind Speed 16 mph    
Max Gust Speed 22 mph    
Visibility 7 miles    
Events Fog , Rain    
Averages and records for this station are not official NWS values.
T = Trace of Precipitation, MM = Missing Value Source: NWS Daily Summary

Daily Weather History Graph

Daily Weather History Graph

Search for Another Location

Airport:

Trip Planner

Search our weather history database for the weather conditions in past years. The results will help you decide how hot, cold, wet, or windy it might be!

Date:

Astronomy

May. 15, 2014 Rise Set
Actual Time 5:43 AM EDT 8:06 PM EDT
Civil Twilight 5:12 AM EDT 8:37 PM EDT
Nautical Twilight 4:34 AM EDT 9:15 PM EDT
Astronomical Twilight 3:52 AM EDT 9:57 PM EDT
Moon 9:12 PM EDT (5/15) 6:27 AM EDT (5/15)
Length of Visible Light 15h 25m
Length of Day
14h 23m
Full, 99% of the Moon is Illuminated
May 15
Full
May 21
Last Quarter
May 28
New
Jun 5
First Quarter
Jun 13
Full

Hourly Weather History & Observations

Time (EDT) Temp. Dew Point Humidity Pressure Visibility Wind Dir Wind Speed Gust Speed Precip Events Conditions
12:58 AM 57.0 °F 57.0 °F 100% 30.20 in 0.8 mi East 4.6 mph - N/A   Mist
1:19 AM 57.2 °F 57.2 °F 100% 30.19 in 0.5 mi Variable 3.5 mph - N/A Fog Fog
1:58 AM 57.7 °F 57.7 °F 100% 30.19 in 0.5 mi NE 1.2 mph - N/A Fog Fog
2:34 AM 59.0 °F 59.0 °F 100% 30.17 in 0.5 mi NNE 2.3 mph - N/A Fog Fog
2:37 AM 59.0 °F 59.0 °F 100% 30.17 in 0.5 mi Calm Calm - N/A Fog Fog
2:58 AM 58.6 °F 58.6 °F 100% 30.18 in 0.5 mi East 3.5 mph - N/A Fog Fog
3:43 AM 59.0 °F 59.0 °F 100% 30.15 in 0.8 mi East 3.5 mph - N/A   Mist
3:49 AM 59.0 °F 59.0 °F 100% 30.15 in 0.5 mi East 2.3 mph - N/A Fog Fog
3:58 AM 59.5 °F 59.5 °F 100% 30.16 in 0.5 mi East 2.3 mph - N/A Fog Fog
4:04 AM 59.0 °F 59.0 °F 100% 30.15 in 0.5 mi Calm Calm - N/A Fog Fog
4:22 AM 60.8 °F 60.8 °F 100% 30.15 in 0.5 mi ENE 2.3 mph - N/A Fog Fog
4:58 AM 60.4 °F 60.4 °F 100% 30.16 in 0.5 mi Calm Calm - N/A Fog Fog
5:22 AM 62.6 °F 62.6 °F 100% 30.14 in 0.5 mi SE 6.9 mph - N/A Fog Fog
5:28 AM 64.4 °F 64.4 °F 100% 30.14 in 0.5 mi SE 6.9 mph - N/A Fog Fog
5:31 AM 64.4 °F 64.4 °F 100% 30.14 in 0.8 mi SSE 6.9 mph - N/A   Mist
5:40 AM 64.4 °F 64.4 °F 100% 30.15 in 0.8 mi SE 8.1 mph - N/A   Mist
5:43 AM 64.4 °F 64.4 °F 100% 30.15 in 0.5 mi SE 9.2 mph - N/A Fog Fog
5:46 AM 64.4 °F 64.4 °F 100% 30.15 in 0.5 mi SSE 8.1 mph - N/A Fog Fog
5:58 AM 64.4 °F 64.4 °F 100% 30.16 in 0.8 mi SSE 9.2 mph - N/A   Overcast
6:01 AM 64.4 °F 64.4 °F 100% 30.15 in 0.8 mi SE 9.2 mph - N/A   Overcast
6:04 AM 64.4 °F 64.4 °F 100% 30.15 in 1.0 mi SSE 9.2 mph - N/A   Overcast
6:07 AM 64.4 °F 64.4 °F 100% 30.15 in 1.0 mi SSE 9.2 mph - N/A   Overcast
6:10 AM 64.4 °F 64.4 °F 100% 30.15 in 1.2 mi SSE 10.4 mph - N/A   Overcast
6:13 AM 64.4 °F 64.4 °F 100% 30.15 in 1.2 mi SE 9.2 mph - N/A   Overcast
6:19 AM 64.4 °F 64.4 °F 100% 30.15 in 1.5 mi SE 10.4 mph - N/A   Overcast
6:31 AM 66.2 °F 66.2 °F 100% 30.15 in 1.8 mi SE 10.4 mph - N/A   Overcast
6:34 AM 66.2 °F 66.2 °F 100% 30.15 in 2.5 mi SE 10.4 mph - N/A   Overcast
6:37 AM 66.2 °F 66.2 °F 100% 30.14 in 4.0 mi SE 11.5 mph - N/A   Overcast
6:46 AM 66.2 °F 66.2 °F 100% 30.15 in 7.0 mi SE 8.1 mph - N/A   Overcast
6:58 AM 65.8 °F 65.8 °F 100% 30.16 in 8.0 mi SE 8.1 mph - N/A   Overcast
7:58 AM 66.6 °F 66.6 °F 100% 30.16 in 10.0 mi SSE 10.4 mph - N/A   Overcast
8:01 AM 66.2 °F 66.2 °F 100% 30.15 in 10.0 mi SSE 10.4 mph - N/A   Overcast
8:16 AM 66.2 °F 66.2 °F 100% 30.16 in 10.0 mi SSE 8.1 mph - N/A   Overcast
8:25 AM 66.2 °F 66.2 °F 100% 30.15 in 10.0 mi SSE 10.4 mph - N/A   Overcast
8:58 AM 67.3 °F 67.3 °F 100% 30.17 in 10.0 mi South 9.2 mph - N/A   Overcast
9:19 AM 68.0 °F 68.0 °F 100% 30.16 in 10.0 mi Variable 6.9 mph - N/A   Overcast
9:37 AM 68.0 °F 68.0 °F 100% 30.16 in 10.0 mi South 9.2 mph - N/A   Overcast
9:58 AM 68.9 °F 68.9 °F 100% 30.17 in 10.0 mi SSE 6.9 mph - N/A   Overcast
10:07 AM 69.8 °F 69.8 °F 100% 30.16 in 10.0 mi SSW 3.5 mph - N/A   Overcast
10:13 AM 69.8 °F 69.8 °F 100% 30.16 in 10.0 mi SSW 5.8 mph - N/A   Overcast
10:37 AM 71.6 °F 71.6 °F 100% 30.16 in 10.0 mi South 8.1 mph - N/A   Overcast
10:46 AM 71.6 °F 71.6 °F 100% 30.15 in 10.0 mi South 4.6 mph - N/A   Overcast
10:58 AM 73.2 °F 71.2 °F 93% 30.16 in 10.0 mi SSE 6.9 mph - N/A   Overcast
11:19 AM 73.4 °F 69.8 °F 88% 30.15 in 10.0 mi SSW 4.6 mph - N/A   Overcast
11:58 AM 75.6 °F 69.3 °F 81% 30.15 in 10.0 mi South 10.4 mph - N/A   Overcast
12:03 PM 77.0 °F 69.8 °F 78% 30.14 in 10.0 mi South 9.2 mph - N/A Rain Light Rain
12:06 PM 77.0 °F 69.8 °F 78% 30.14 in 10.0 mi SSW 6.9 mph - N/A Rain Light Rain
12:13 PM 78.8 °F 69.8 °F 74% 30.14 in 10.0 mi South 10.4 mph - N/A   Mostly Cloudy
12:28 PM 78.8 °F 68.0 °F 69% 30.13 in 10.0 mi South 10.4 mph - N/A   Overcast
12:58 PM 76.6 °F 68.2 °F 75% 30.13 in 10.0 mi South 12.7 mph 19.6 mph 0.00 in   Mostly Cloudy
1:02 PM 75.2 °F 68.0 °F 78% 30.12 in 10.0 mi SSE 12.7 mph 19.6 mph N/A Rain Light Rain
1:16 PM 75.2 °F 71.6 °F 89% 30.12 in 10.0 mi South 9.2 mph 19.6 mph N/A   Mostly Cloudy
1:55 PM 77.0 °F 68.0 °F 74% 30.11 in 10.0 mi South 11.5 mph 18.4 mph N/A   Mostly Cloudy
1:58 PM 77.0 °F 68.0 °F 74% 30.12 in 10.0 mi South 15.0 mph 18.4 mph 0.00 in   Overcast
2:58 PM 78.3 °F 68.0 °F 71% 30.10 in 10.0 mi South 12.7 mph 21.9 mph N/A   Mostly Cloudy
3:01 PM 78.8 °F 68.0 °F 69% 30.08 in 10.0 mi South 16.1 mph 20.7 mph N/A   Mostly Cloudy
3:04 PM 77.0 °F 68.0 °F 74% 30.09 in 10.0 mi South 15.0 mph 21.9 mph N/A   Mostly Cloudy
3:58 PM 76.5 °F 66.7 °F 72% 30.08 in 10.0 mi SSE 15.0 mph 18.4 mph N/A   Overcast
4:31 PM 73.4 °F 68.0 °F 83% 30.07 in 10.0 mi South 10.4 mph 16.1 mph N/A   Mostly Cloudy
4:58 PM 73.4 °F 68.2 °F 84% 30.09 in 10.0 mi South 12.7 mph 18.4 mph N/A   Overcast
5:02 PM 73.4 °F 68.0 °F 83% 30.08 in 10.0 mi SSE 11.5 mph - N/A Rain Light Rain
5:11 PM 73.4 °F 68.0 °F 83% 30.08 in 10.0 mi South 10.4 mph 18.4 mph N/A   Overcast
5:15 PM 71.6 °F 68.0 °F 88% 30.09 in 10.0 mi South 10.4 mph 18.4 mph N/A Rain Light Rain
5:18 PM 71.6 °F 69.8 °F 94% 30.09 in 9.0 mi South 10.4 mph - N/A Rain Light Rain
5:21 PM 71.6 °F 69.8 °F 94% 30.09 in 9.0 mi South 10.4 mph - N/A Rain Light Rain
5:54 PM 69.8 °F 69.8 °F 100% 30.08 in 10.0 mi South 8.1 mph - N/A   Mostly Cloudy
5:58 PM 69.6 °F 69.6 °F 100% 30.09 in 7.0 mi SSE 8.1 mph - 0.05 in   Overcast
5:59 PM 69.8 °F 69.8 °F 100% 30.08 in 5.0 mi SSE 8.1 mph - N/A Rain Light Rain
6:10 PM 69.8 °F 69.8 °F 100% 30.08 in 6.0 mi SSE 9.2 mph - N/A   Mostly Cloudy
6:25 PM 69.8 °F 69.8 °F 100% 30.08 in 10.0 mi South 8.1 mph - N/A   Mostly Cloudy
6:37 PM 69.8 °F 69.8 °F 100% 30.08 in 10.0 mi SSE 8.1 mph - N/A   Overcast
6:58 PM 68.9 °F 68.9 °F 100% 30.09 in 10.0 mi SSE 10.4 mph - 0.00 in   Overcast
7:04 PM 68.0 °F 68.0 °F 100% 30.08 in 10.0 mi SSE 8.1 mph - N/A   Overcast
7:43 PM 68.0 °F 68.0 °F 100% 30.08 in 10.0 mi SSE 8.1 mph - N/A   Overcast
7:58 PM 67.5 °F 67.5 °F 100% 30.09 in 10.0 mi South 9.2 mph - N/A   Overcast
8:25 PM 68.0 °F 66.2 °F 94% 30.07 in 10.0 mi SSE 9.2 mph - N/A   Mostly Cloudy
8:40 PM 68.0 °F 66.2 °F 94% 30.07 in 10.0 mi South 8.1 mph - N/A   Mostly Cloudy
8:43 PM 68.0 °F 66.2 °F 94% 30.07 in 10.0 mi South 11.5 mph - N/A   Mostly Cloudy
8:58 PM 68.0 °F 66.2 °F 94% 30.08 in 10.0 mi SSE 6.9 mph - N/A   Mostly Cloudy
9:03 PM 68.0 °F 66.2 °F 94% 30.07 in 10.0 mi SSE 8.1 mph - N/A   Overcast
9:12 PM 68.0 °F 66.2 °F 94% 30.07 in 10.0 mi South 8.1 mph - N/A   Overcast
9:17 PM 68.0 °F 66.2 °F 94% 30.07 in 10.0 mi South 9.2 mph - N/A   Overcast
9:41 PM 66.2 °F 66.2 °F 100% 30.07 in 10.0 mi SSE 9.2 mph - N/A   Mostly Cloudy
9:58 PM 67.1 °F 66.7 °F 99% 30.07 in 10.0 mi SSE 8.1 mph - N/A   Overcast
9:59 PM 68.0 °F 66.2 °F 94% 30.06 in 10.0 mi SSE 8.1 mph - N/A   Overcast
10:23 PM 68.0 °F 66.2 °F 94% 30.06 in 10.0 mi SSE 5.8 mph - N/A Rain Light Rain
10:43 PM 68.0 °F 68.0 °F 100% 30.05 in 10.0 mi SSE 9.2 mph - N/A   Overcast
10:58 PM 67.3 °F 66.9 °F 99% 30.06 in 10.0 mi SSE 11.5 mph - 0.00 in   Overcast
11:16 PM 68.0 °F 66.2 °F 94% 30.04 in 10.0 mi South 9.2 mph - N/A   Mostly Cloudy
11:21 PM 68.0 °F 66.2 °F 94% 30.04 in 10.0 mi SSE 9.2 mph - N/A   Overcast
11:36 PM 68.0 °F 66.2 °F 94% 30.04 in 10.0 mi South 10.4 mph - N/A   Overcast
11:58 PM 67.3 °F 66.9 °F 99% 30.05 in 10.0 mi South 9.2 mph - N/A   Overcast